TimeAKST,TemperatureF,Dew PointF,Humidity,Sea Level PressureIn,VisibilityMPH,Wind Direction,Wind SpeedMPH,Gust SpeedMPH,PrecipitationIn,Events,Conditions,WindDirDegrees,DateUTC
12:53 AM,-4.0,-8.0,83,30.10,10.0,North,5.8,-,N/A,,Clear,360,2013-03-06 09:53:00
1:53 AM,-4.0,-7.1,87,30.09,10.0,NNW,3.5,-,N/A,,Clear,330,2013-03-06 10:53:00
3:53 AM,-6.0,-9.9,83,30.07,10.0,NNW,3.5,-,N/A,,Clear,340,2013-03-06 12:53:00
4:53 AM,-8.0,-13.0,79,30.08,10.0,WNW,3.5,-,N/A,,Clear,290,2013-03-06 13:53:00
5:53 AM,-9.0,-14.1,79,30.09,10.0,Calm,Calm,-,N/A,,Partly Cloudy,0,2013-03-06 14:53:00
6:53 AM,-9.0,-14.1,79,30.11,10.0,WNW,4.6,-,N/A,,Partly Cloudy,290,2013-03-06 15:53:00
7:53 AM,-9.9,-15.0,78,30.12,10.0,Calm,Calm,-,N/A,,Scattered Clouds,0,2013-03-06 16:53:00
8:53 AM,-4.0,-9.0,79,30.10,10.0,Calm,Calm,-,N/A,,Scattered Clouds,0,2013-03-06 17:53:00
9:53 AM,3.9,-0.9,80,30.09,10.0,Calm,Calm,-,N/A,,Scattered Clouds,0,2013-03-06 18:53:00
10:53 AM,5.0,-0.9,76,30.10,10.0,Calm,Calm,-,N/A,,Scattered Clouds,0,2013-03-06 19:53:00
11:53 AM,12.9,1.9,62,30.09,10.0,Calm,Calm,-,N/A,,Mostly Cloudy,0,2013-03-06 20:53:00
12:53 PM,16.0,5.0,62,30.09,10.0,Calm,Calm,-,N/A,,Mostly Cloudy,0,2013-03-06 21:53:00
1:53 PM,23.0,7.0,50,30.08,10.0,Calm,Calm,-,N/A,,Scattered Clouds,0,2013-03-06 22:53:00
2:53 PM,21.9,8.1,55,30.05,10.0,SE,4.6,-,N/A,,Scattered Clouds,130,2013-03-06 23:53:00
3:53 PM,24.1,8.1,51,30.04,10.0,Calm,Calm,-,N/A,,Scattered Clouds,0,2013-03-07 00:53:00
4:53 PM,24.1,7.0,48,30.04,10.0,Calm,Calm,-,N/A,,Scattered Clouds,0,2013-03-07 01:53:00
5:53 PM,21.0,7.0,55,30.06,10.0,Calm,Calm,-,N/A,,Mostly Cloudy,0,2013-03-07 02:53:00
6:53 PM,12.9,5.0,71,30.08,10.0,Calm,Calm,-,N/A,,Partly Cloudy,0,2013-03-07 03:53:00
7:53 PM,8.1,1.0,73,30.09,10.0,Calm,Calm,-,N/A,,Partly Cloudy,0,2013-03-07 04:53:00
8:53 PM,3.9,-0.9,80,30.08,10.0,Calm,Calm,-,N/A,,Partly Cloudy,0,2013-03-07 05:53:00
9:27 PM,1.0,-2.9,83,29.89,10.0,Calm,Calm,-,N/A,,Partly Cloudy,0,2013-03-07 06:27:00
9:53 PM,1.9,-2.9,80,30.06,10.0,Calm,Calm,-,N/A,,Clear,0,2013-03-07 06:53:00
10:53 PM,-0.9,-5.1,83,30.06,10.0,North,4.6,-,N/A,,Clear,10,2013-03-07 07:53:00
11:53 PM,-2.9,-7.1,82,30.06,10.0,NNW,3.5,-,N/A,,Clear,330,2013-03-07 08:53:00